| time (UTC) | temp C | wind direction | speed KPH | gust KPH | rain 1hr cm | rain 24hr cm | rain mn cm | humidity % | barometer mb |
| 20260905091613 | 25 | 0 | 0.0 | 0.0 | 0.00 | 0.36 | 0.00 | 90 | 1013.0 |
| 20260905090059 | 25 | 0 | 0.0 | 0.0 | 0.00 | 0.36 | 0.00 | 90 | 1013.1 |
| 20260905084601 | 25 | 0 | 0.0 | 0.0 | 0.00 | 0.36 | 0.00 | 89 | 1012.9 |
| 20260905083122 | 26 | 0 | 0.0 | 0.0 | 0.00 | 0.36 | 0.00 | 89 | 1012.8 |
| 20260905081621 | 26 | 0 | 0.0 | 0.0 | 0.00 | 0.36 | 0.00 | 89 | 1012.9 |
| 20260905080101 | 26 | 0 | 0.0 | 0.0 | 0.00 | 0.36 | 0.00 | 89 | 1013.1 |
| 20260905074603 | 26 | 0 | 0.0 | 0.0 | 0.00 | 0.36 | 0.00 | 89 | 1013.2 |
| 20260905073101 | 26 | 0 | 0.0 | 0.0 | 0.00 | 0.36 | 0.00 | 89 | 1013.2 |
| 20260905071615 | 26 | 0 | 0.0 | 0.0 | 0.00 | 0.36 | 0.00 | 89 | 1013.3 |
| 20260905064619 | 26 | 0 | 0.0 | 0.0 | 0.00 | 0.36 | 0.00 | 88 | 1013.7 |
| 20260905063101 | 26 | 0 | 0.0 | 0.0 | 0.00 | 0.36 | 0.00 | 88 | 1013.7 |
| 20260905061608 | 27 | 0 | 0.0 | 0.0 | 0.00 | 0.36 | 0.00 | 87 | 1013.7 |
| 20260905054709 | 27 | 0 | 0.0 | 0.0 | 0.00 | 0.36 | 0.00 | 87 | 1013.9 |
| 20260905053104 | 27 | 0 | 0.0 | 0.0 | 0.00 | 0.36 | 0.00 | 87 | 1013.8 |
| 20260905051603 | 27 | 0 | 0.0 | 3.2 | 0.00 | 0.36 | 0.00 | 87 | 1013.8 |
| 20260905050105 | 27 | 0 | 0.0 | 0.0 | 0.00 | 0.36 | 0.00 | 87 | 1013.8 |
| 20260905044609 | 27 | 0 | 0.0 | 0.0 | 0.00 | 0.36 | 0.36 | 87 | 1013.9 |
| 20260905043106 | 27 | 0 | 0.0 | 0.0 | 0.00 | 0.36 | 0.36 | 87 | 1013.9 |
| 20260905041604 | 27 | 0 | 0.0 | 0.0 | 0.00 | 0.36 | 0.36 | 86 | 1014.1 |
| 20260905040109 | 27 | 0 | 0.0 | 0.0 | 0.00 | 0.36 | 0.36 | 86 | 1014.1 |
| 20260905034608 | 27 | 0 | 0.0 | 0.0 | 0.00 | 0.36 | 0.36 | 86 | 1014.2 |
| 20260905033104 | 27 | 0 | 0.0 | 0.0 | 0.00 | 0.36 | 0.36 | 86 | 1014.3 |
| 20260905031613 | 28 | 0 | 0.0 | 0.0 | 0.00 | 0.36 | 0.36 | 86 | 1014.3 |
| 20260905030112 | 28 | 0 | 0.0 | 0.0 | 0.00 | 0.36 | 0.36 | 86 | 1014.1 |
| 20260905024612 | 28 | 0 | 0.0 | 0.0 | 0.00 | 0.36 | 0.36 | 86 | 1014.1 |
| 20260905023113 | 28 | 0 | 0.0 | 0.0 | 0.00 | 0.36 | 0.36 | 85 | 1014.0 |
| 20260905021607 | 28 | 0 | 0.0 | 3.2 | 0.00 | 0.36 | 0.36 | 85 | 1013.8 |
| 20260905020058 | 28 | 0 | 0.0 | 0.0 | 0.00 | 0.36 | 0.36 | 84 | 1013.8 |
| 20260905014604 | 28 | 0 | 0.0 | 0.0 | 0.00 | 0.36 | 0.36 | 84 | 1013.6 |
| 20260905013104 | 29 | 0 | 0.0 | 1.6 | 0.00 | 0.36 | 0.36 | 83 | 1013.6 |
| 20260905011601 | 29 | 0 | 0.0 | 0.0 | 0.00 | 0.36 | 0.36 | 82 | 1013.4 |
| 20260905010110 | 29 | 0 | 0.0 | 0.0 | 0.00 | 0.36 | 0.36 | 81 | 1013.0 |
| 20260905004603 | 30 | 0 | 0.0 | 3.2 | 0.00 | 0.36 | 0.36 | 80 | 1013.0 |
| 20260905003101 | 30 | 0 | 0.0 | 6.4 | 0.00 | 0.36 | 0.36 | 79 | 1012.9 |
| 20260905001605 | 31 | 0 | 0.0 | 0.0 | 0.00 | 0.36 | 0.36 | 78 | 1013.0 |
| 20260904234605 | 32 | 0 | 0.0 | 1.6 | 0.00 | 0.36 | 0.36 | 72 | 1012.9 |
| 20260904233108 | 32 | 0 | 0.0 | 3.2 | 0.00 | 0.36 | 0.36 | 72 | 1013.0 |
| 20260904231608 | 33 | 0 | 0.0 | 3.2 | 0.00 | 0.36 | 0.36 | 70 | 1013.0 |
| 20260904230108 | 33 | 0 | 0.0 | 3.2 | 0.00 | 0.36 | 0.36 | 69 | 1013.0 |
| 20260904224601 | 33 | 0 | 0.0 | 4.8 | 0.00 | 0.36 | 0.36 | 67 | 1012.9 |
| 20260904223100 | 33 | 0 | 0.0 | 3.2 | 0.00 | 0.36 | 0.36 | 67 | 1013.1 |
| 20260904221609 | 33 | 0 | 0.0 | 6.4 | 0.00 | 0.36 | 0.36 | 69 | 1012.9 |
| 20260904220109 | 32 | 0 | 0.0 | 3.2 | 0.00 | 0.36 | 0.36 | 71 | 1012.9 |
| 20260904214600 | 32 | 0 | 0.0 | 3.2 | 0.00 | 0.38 | 0.36 | 70 | 1013.1 |
| 20260904213105 | 33 | 0 | 0.0 | 3.2 | 0.00 | 0.38 | 0.36 | 72 | 1013.3 |
| 20260904211603 | 33 | 0 | 0.0 | 3.2 | 0.00 | 0.38 | 0.36 | 73 | 1013.2 |
| 20260904204601 | 31 | 0 | 0.0 | 4.8 | 0.00 | 0.38 | 0.36 | 76 | 1013.8 |
| 20260904203105 | 30 | 0 | 0.0 | 3.2 | 0.00 | 0.38 | 0.36 | 80 | 1013.8 |
| 20260904201600 | 30 | 253 | 6.4 | 17.7 | 0.00 | 0.38 | 0.36 | 76 | 1014.5 |
| 20260904200115 | 31 | 0 | 0.0 | 4.8 | 0.00 | 0.38 | 0.36 | 76 | 1014.7 |
| 20260904194609 | 32 | 75 | 0.0 | 6.4 | 0.00 | 0.38 | 0.36 | 75 | 1014.4 |
| 20260904193103 | 31 | 100 | 0.0 | 4.8 | 0.00 | 0.38 | 0.36 | 74 | 1014.3 |
| 20260904191601 | 32 | 0 | 0.0 | 3.2 | 0.00 | 0.38 | 0.36 | 71 | 1014.4 |
| 20260904184623 | 32 | 0 | 0.0 | 0.0 | 0.00 | 0.38 | 0.36 | 70 | 1014.8 |
| 20260904183103 | 33 | 0 | 0.0 | 3.2 | 0.00 | 0.38 | 0.36 | 71 | 1015.0 |
| 20260904181603 | 33 | 109 | 0.0 | 4.8 | 0.00 | 0.38 | 0.36 | 71 | 1015.3 |
| 20260904180105 | 32 | 0 | 0.0 | 4.8 | 0.00 | 0.38 | 0.36 | 74 | 1015.4 |
| 20260904174604 | 32 | 0 | 0.0 | 3.2 | 0.00 | 0.38 | 0.36 | 74 | 1015.4 |
| 20260904173110 | 32 | 0 | 0.0 | 3.2 | 0.00 | 0.38 | 0.36 | 76 | 1015.6 |
| 20260904171601 | 31 | 0 | 0.0 | 8.0 | 0.00 | 0.38 | 0.36 | 76 | 1015.9 |
| 20260904170101 | 30 | 0 | 0.0 | 1.6 | 0.00 | 0.38 | 0.36 | 81 | 1015.8 |
| 20260904164603 | 29 | 0 | 0.0 | 3.2 | 0.00 | 0.38 | 0.36 | 81 | 1015.8 |
| 20260904163102 | 28 | 0 | 0.0 | 6.4 | 0.00 | 0.38 | 0.36 | 81 | 1016.0 |
| 20260904161605 | 28 | 0 | 0.0 | 3.2 | 0.00 | 0.38 | 0.36 | 85 | 1016.2 |
| 20260904160100 | 28 | 0 | 0.0 | 4.8 | 0.00 | 0.38 | 0.36 | 86 | 1016.0 |
| 20260904154618 | 28 | 0 | 0.0 | 6.4 | 0.00 | 0.41 | 0.36 | 87 | 1016.0 |
| 20260904153102 | 28 | 0 | 0.0 | 3.2 | 0.00 | 0.41 | 0.36 | 87 | 1016.0 |
| 20260904151602 | 28 | 0 | 0.0 | 4.8 | 0.00 | 0.41 | 0.36 | 86 | 1015.4 |
| 20260904144604 | 27 | 0 | 0.0 | 3.2 | 0.00 | 0.53 | 0.36 | 86 | 1015.3 |
| 20260904143107 | 28 | 0 | 0.0 | 0.0 | 0.00 | 0.53 | 0.36 | 86 | 1015.3 |
| 20260904141605 | 28 | 0 | 0.0 | 0.0 | 0.00 | 0.53 | 0.36 | 86 | 1015.2 |
| 20260904140110 | 28 | 0 | 0.0 | 3.2 | 0.00 | 0.53 | 0.36 | 87 | 1015.0 |
| 20260904134615 | 27 | 0 | 0.0 | 3.2 | 0.00 | 1.96 | 0.36 | 89 | 1015.0 |
| 20260904133103 | 26 | 0 | 0.0 | 3.2 | 0.00 | 1.96 | 0.36 | 91 | 1014.8 |
| 20260904131627 | 25 | 0 | 0.0 | 0.0 | 0.00 | 1.96 | 0.36 | 92 | 1014.7 |
| 20260904130103 | 25 | 0 | 0.0 | 0.0 | 0.00 | 1.96 | 0.36 | 91 | 1014.9 |
| 20260904124613 | 25 | 0 | 0.0 | 0.0 | 0.00 | 2.13 | 0.36 | 91 | 1014.8 |
| 20260904123116 | 25 | 0 | 0.0 | 0.0 | 0.00 | 2.13 | 0.36 | 91 | 1014.5 |
| 20260904121559 | 25 | 0 | 0.0 | 0.0 | 0.00 | 2.13 | 0.36 | 90 | 1014.1 |
| 20260904114604 | 25 | 0 | 0.0 | 0.0 | 0.05 | 2.13 | 0.36 | 90 | 1013.9 |
| 20260904113122 | 25 | 226 | 0.0 | 0.0 | 0.28 | 2.13 | 0.36 | 90 | 1013.5 |
| 20260904113100 | 25 | 0 | 0.0 | 0.0 | 0.28 | 2.13 | 0.36 | 90 | 1014.0 |
| 20260904113040 | 25 | 226 | 0.0 | 0.0 | 0.28 | 2.13 | 0.36 | 90 | 1013.6 |
| 20260904112521 | 25 | 226 | 0.0 | 0.0 | 0.36 | 2.13 | 0.36 | 90 | 1013.6 |
| 20260904111606 | 25 | 0 | 0.0 | 0.0 | 0.36 | 2.13 | 0.36 | 89 | 1013.9 |
| 20260904110104 | 25 | 0 | 0.0 | 0.0 | 0.36 | 2.13 | 0.36 | 89 | 1013.9 |
| 20260904104606 | 26 | 0 | 0.0 | 0.0 | 0.30 | 2.08 | 0.30 | 88 | 1014.1 |
| 20260904103101 | 27 | 0 | 0.0 | 3.2 | 0.05 | 1.83 | 0.05 | 89 | 1014.0 |
| 20260904101559 | 27 | 0 | 0.0 | 0.0 | 0.00 | 1.78 | 0.00 | 89 | 1013.8 |
| 20260904100109 | 27 | 0 | 0.0 | 0.0 | 0.00 | 1.78 | 0.00 | 88 | 1013.4 |
| 20260904094612 | 27 | 0 | 0.0 | 0.0 | 0.00 | 1.78 | 0.00 | 88 | 1013.4 |
| 20260904093057 | 27 | 0 | 0.0 | 0.0 | 0.00 | 1.78 | 0.00 | 88 | 1013.4 |